Time,TemperatureF,DewpointF,PressureIn,WindDirection,WindDirectionDegrees,WindSpeedMPH,WindSpeedGustMPH,Humidity,HourlyPrecipIn,Conditions,Clouds,dailyrainin,SoftwareType,DateUTC
2013-04-05 00:00:00,38.0,19.4,30.04,WSW,248,1.1,2.5,47,0.00,,,0.00,WUHU216HW,2013-04-05 04:00:00,
2013-04-05 00:01:00,38.0,19.4,30.03,West,270,0.9,2.5,47,0.00,,,0.00,WUHU216HW,2013-04-05 04:01:00,
2013-04-05 00:06:00,38.0,19.4,30.03,SSW,203,3.4,3.4,47,0.00,,,0.00,WUHU216HW,2013-04-05 04:06:00,
2013-04-05 00:11:00,38.0,19.4,30.03,South,180,0.4,3.4,47,0.00,,,0.00,WUHU216HW,2013-04-05 04:11:00,
2013-04-05 00:16:00,37.8,19.3,30.03,SSW,203,0.4,2.7,47,0.00,,,0.00,WUHU216HW,2013-04-05 04:16:00,
2013-04-05 00:21:00,37.8,19.3,30.03,SSE,158,0.7,2.7,47,0.00,,,0.00,WUHU216HW,2013-04-05 04:21:00,
2013-04-05 00:26:00,37.6,19.6,30.03,SSE,158,1.3,2.0,48,0.00,,,0.00,WUHU216HW,2013-04-05 04:26:00,
2013-04-05 00:32:00,37.6,19.6,30.03,SSE,158,0.9,1.8,48,0.00,,,0.00,WUHU216HW,2013-04-05 04:32:00,
2013-04-05 00:37:00,37.4,18.9,30.02,ESE,113,0.4,2.0,47,0.00,,,0.00,WUHU216HW,2013-04-05 04:37:00,
2013-04-05 00:42:00,37.4,18.9,30.02,SE,135,0.7,2.0,47,0.00,,,0.00,WUHU216HW,2013-04-05 04:42:00,
2013-04-05 00:47:00,37.4,18.9,30.02,South,180,1.3,1.3,47,0.00,,,0.00,WUHU216HW,2013-04-05 04:47:00,
2013-04-05 00:52:00,37.2,18.7,30.02,SSE,158,0.4,2.2,47,0.00,,,0.00,WUHU216HW,2013-04-05 04:52:00,
2013-04-05 00:57:00,37.2,18.7,30.02,SSE,158,0.4,2.2,47,0.00,,,0.00,WUHU216HW,2013-04-05 04:57:00,
2013-04-05 01:02:00,37.1,18.6,30.02,SE,135,1.3,2.5,47,0.00,,,0.00,WUHU216HW,2013-04-05 05:02:00,
2013-04-05 01:07:00,37.1,19.1,30.02,SE,135,1.1,2.5,48,0.00,,,0.00,WUHU216HW,2013-04-05 05:07:00,
2013-04-05 01:12:00,37.1,19.1,30.02,SE,135,1.3,2.5,48,0.00,,,0.00,WUHU216HW,2013-04-05 05:12:00,
2013-04-05 01:17:00,36.9,18.9,30.02,SE,135,2.0,3.8,48,0.00,,,0.00,WUHU216HW,2013-04-05 05:17:00,
2013-04-05 01:22:00,36.9,18.9,30.02,SSE,158,2.0,4.0,48,0.00,,,0.00,WUHU216HW,2013-04-05 05:22:00,
2013-04-05 01:27:00,36.9,19.4,30.02,SSE,158,2.2,4.0,49,0.00,,,0.00,WUHU216HW,2013-04-05 05:27:00,
2013-04-05 01:32:00,36.9,18.9,30.02,South,180,1.1,5.8,48,0.00,,,0.00,WUHU216HW,2013-04-05 05:32:00,
2013-04-05 01:37:00,36.7,18.8,30.02,South,180,6.0,6.0,48,0.00,,,0.00,WUHU216HW,2013-04-05 05:37:00,
2013-04-05 01:43:00,36.7,19.3,30.01,SE,135,1.1,6.0,49,0.00,,,0.00,WUHU216HW,2013-04-05 05:43:00,
2013-04-05 01:48:00,36.5,19.6,30.01,WSW,248,1.8,4.7,50,0.00,,,0.00,WUHU216HW,2013-04-05 05:48:00,
2013-04-05 01:53:00,36.5,19.1,30.00,SSE,158,1.8,4.0,49,0.00,,,0.00,WUHU216HW,2013-04-05 05:53:00,
2013-04-05 01:58:00,36.5,19.6,30.00,SSE,158,1.1,3.1,50,0.00,,,0.00,WUHU216HW,2013-04-05 05:58:00,
2013-04-05 02:03:00,36.3,19.4,30.00,WSW,248,2.7,3.1,50,0.00,,,0.00,WUHU216HW,2013-04-05 06:03:00,
2013-04-05 02:08:00,36.3,19.4,29.99,SSE,158,1.6,4.7,50,0.00,,,0.00,WUHU216HW,2013-04-05 06:08:00,
2013-04-05 02:13:00,36.3,19.8,29.99,ESE,113,1.3,4.7,51,0.00,,,0.00,WUHU216HW,2013-04-05 06:13:00,
2013-04-05 02:18:00,36.3,19.8,29.98,South,180,0.9,4.7,51,0.00,,,0.00,WUHU216HW,2013-04-05 06:18:00,
2013-04-05 02:23:00,36.2,19.8,29.98,SE,135,0.4,4.7,51,0.00,,,0.00,WUHU216HW,2013-04-05 06:23:00,
2013-04-05 02:28:00,36.2,19.8,29.98,SSE,158,0.4,4.5,51,0.00,,,0.00,WUHU216HW,2013-04-05 06:28:00,
2013-04-05 02:33:00,36.2,19.8,29.98,ESE,113,1.8,3.4,51,0.00,,,0.00,WUHU216HW,2013-04-05 06:33:00,
2013-04-05 02:38:00,36.0,20.0,29.97,WSW,248,1.1,3.4,52,0.00,,,0.00,WUHU216HW,2013-04-05 06:38:00,
2013-04-05 02:43:00,36.0,20.0,29.97,SE,135,1.3,3.1,52,0.00,,,0.00,WUHU216HW,2013-04-05 06:43:00,
2013-04-05 02:49:00,36.0,20.0,29.97,SSE,158,1.1,3.4,52,0.00,,,0.00,WUHU216HW,2013-04-05 06:49:00,
2013-04-05 02:54:00,35.8,19.9,29.97,SE,135,0.0,3.4,52,0.00,,,0.00,WUHU216HW,2013-04-05 06:54:00,
2013-04-05 02:59:00,35.8,20.3,29.97,SE,135,1.8,2.2,53,0.00,,,0.00,WUHU216HW,2013-04-05 06:59:00,
2013-04-05 03:04:00,35.8,20.3,29.97,SSE,158,1.1,2.9,53,0.00,,,0.00,WUHU216HW,2013-04-05 07:04:00,
2013-04-05 03:09:00,35.8,20.3,29.97,SSW,203,3.8,4.5,53,0.00,,,0.00,WUHU216HW,2013-04-05 07:09:00,
2013-04-05 03:14:00,35.8,20.8,29.97,SE,135,1.3,4.5,54,0.00,,,0.00,WUHU216HW,2013-04-05 07:14:00,
2013-04-05 03:19:00,35.6,20.6,29.97,SSE,158,1.1,3.8,54,0.00,,,0.00,WUHU216HW,2013-04-05 07:19:00,
2013-04-05 03:24:00,35.8,20.8,29.96,SSW,203,1.1,5.1,54,0.00,,,0.00,WUHU216HW,2013-04-05 07:24:00,
2013-04-05 03:29:00,35.6,20.6,29.96,SE,135,0.4,5.1,54,0.00,,,0.00,WUHU216HW,2013-04-05 07:29:00,
2013-04-05 03:34:00,35.6,20.6,29.96,SSE,158,1.6,4.0,54,0.00,,,0.00,WUHU216HW,2013-04-05 07:34:00,
2013-04-05 03:39:00,35.6,21.0,29.95,South,180,3.8,4.0,55,0.00,,,0.00,WUHU216HW,2013-04-05 07:39:00,
2013-04-05 03:45:00,35.6,21.0,29.96,SSE,158,1.6,3.8,55,0.00,,,0.00,WUHU216HW,2013-04-05 07:45:00,
2013-04-05 03:50:00,35.6,21.0,29.96,SSE,158,0.0,3.4,55,0.00,,,0.00,WUHU216HW,2013-04-05 07:50:00,
2013-04-05 03:55:00,35.6,21.0,29.95,SE,135,0.0,3.4,55,0.00,,,0.00,WUHU216HW,2013-04-05 07:55:00,
2013-04-05 04:00:00,35.6,21.0,29.95,SE,135,0.4,2.0,55,0.00,,,0.00,WUHU216HW,2013-04-05 08:00:00,
2013-04-05 04:05:00,35.6,21.0,29.94,East,90,0.7,2.0,55,0.00,,,0.00,WUHU216HW,2013-04-05 08:05:00,
2013-04-05 04:10:00,35.8,21.6,29.94,SE,135,0.9,1.1,56,0.00,,,0.00,WUHU216HW,2013-04-05 08:10:00,
2013-04-05 04:15:00,35.8,21.6,29.94,SE,135,0.0,1.1,56,0.00,,,0.00,WUHU216HW,2013-04-05 08:15:00,
2013-04-05 04:20:00,35.6,21.5,29.94,SW,225,0.0,1.1,56,0.00,,,0.00,WUHU216HW,2013-04-05 08:20:00,
2013-04-05 04:25:00,35.6,21.5,29.94,SSE,158,1.1,1.1,56,0.00,,,0.00,WUHU216HW,2013-04-05 08:25:00,
2013-04-05 04:30:00,35.6,21.5,29.94,SE,135,0.4,1.1,56,0.00,,,0.00,WUHU216HW,2013-04-05 08:30:00,
2013-04-05 04:35:00,35.6,21.5,29.94,SSW,203,0.0,1.3,56,0.00,,,0.00,WUHU216HW,2013-04-05 08:35:00,
2013-04-05 04:40:00,35.8,21.6,29.94,SSW,203,0.0,1.3,56,0.00,,,0.00,WUHU216HW,2013-04-05 08:40:00,
2013-04-05 04:45:00,35.8,21.6,29.93,SE,135,1.8,1.8,56,0.00,,,0.00,WUHU216HW,2013-04-05 08:45:00,
2013-04-05 04:50:00,35.8,21.6,29.93,SE,135,0.4,1.8,56,0.00,,,0.00,WUHU216HW,2013-04-05 08:50:00,
2013-04-05 04:55:00,35.8,21.6,29.93,SSE,158,1.1,1.8,56,0.00,,,0.00,WUHU216HW,2013-04-05 08:55:00,
2013-04-05 05:00:00,35.8,21.6,29.93,ESE,113,0.0,2.9,56,0.00,,,0.00,WUHU216HW,2013-04-05 09:00:00,
2013-04-05 05:06:00,35.8,21.6,29.93,ESE,113,0.0,2.9,56,0.00,,,0.00,WUHU216HW,2013-04-05 09:06:00,
2013-04-05 05:11:00,35.8,22.1,29.93,ESE,113,0.0,1.6,57,0.00,,,0.00,WUHU216HW,2013-04-05 09:11:00,
2013-04-05 05:16:00,35.6,21.9,29.92,East,90,0.0,1.8,57,0.00,,,0.00,WUHU216HW,2013-04-05 09:16:00,
2013-04-05 05:21:00,35.6,21.9,29.91,North,0,0.4,1.8,57,0.00,,,0.00,WUHU216HW,2013-04-05 09:21:00,
2013-04-05 05:26:00,35.6,21.9,29.92,WSW,248,0.0,0.7,57,0.00,,,0.00,WUHU216HW,2013-04-05 09:26:00,
2013-04-05 05:32:00,35.6,21.9,29.92,SSE,158,0.2,1.1,57,0.00,,,0.00,WUHU216HW,2013-04-05 09:32:00,
2013-04-05 05:37:00,35.4,21.7,29.92,SE,135,0.0,2.5,57,0.00,,,0.00,WUHU216HW,2013-04-05 09:37:00,
2013-04-05 05:42:00,35.4,21.7,29.92,SSE,158,0.0,2.5,57,0.00,,,0.00,WUHU216HW,2013-04-05 09:42:00,
2013-04-05 05:47:00,35.3,21.6,29.92,WSW,248,0.0,1.1,57,0.00,,,0.00,WUHU216HW,2013-04-05 09:47:00,
2013-04-05 05:52:00,35.3,21.6,29.92,WNW,293,0.0,1.1,57,0.00,,,0.00,WUHU216HW,2013-04-05 09:52:00,
2013-04-05 05:57:00,35.3,21.6,29.91,WNW,293,0.4,1.1,57,0.00,,,0.00,WUHU216HW,2013-04-05 09:57:00,
2013-04-05 06:02:00,35.3,22.0,29.91,SSW,203,0.7,0.9,58,0.00,,,0.00,WUHU216HW,2013-04-05 10:02:00,
2013-04-05 06:07:00,35.1,21.8,29.91,SSE,158,0.0,0.9,58,0.00,,,0.00,WUHU216HW,2013-04-05 10:07:00,
2013-04-05 06:12:00,35.1,21.8,29.91,SSE,158,0.0,0.7,58,0.00,,,0.00,WUHU216HW,2013-04-05 10:12:00,
2013-04-05 06:17:00,35.1,21.8,29.91,SSE,158,0.0,0.0,58,0.00,,,0.00,WUHU216HW,2013-04-05 10:17:00,
2013-04-05 06:22:00,34.9,21.6,29.91,SE,135,1.1,1.3,58,0.00,,,0.00,WUHU216HW,2013-04-05 10:22:00,
2013-04-05 06:28:00,34.7,21.5,29.91,SE,135,0.7,1.3,58,0.00,,,0.00,WUHU216HW,2013-04-05 10:28:00,
2013-04-05 06:33:00,34.5,21.7,29.91,SE,135,1.1,1.1,59,0.00,,,0.00,WUHU216HW,2013-04-05 10:33:00,
2013-04-05 06:38:00,34.4,21.6,29.91,SE,135,0.2,1.3,59,0.00,,,0.00,WUHU216HW,2013-04-05 10:38:00,
2013-04-05 06:43:00,34.2,21.4,29.91,SE,135,0.7,1.3,59,0.00,,,0.00,WUHU216HW,2013-04-05 10:43:00,
2013-04-05 06:48:00,33.8,21.0,29.90,SE,135,0.0,0.9,59,0.00,,,0.00,WUHU216HW,2013-04-05 10:48:00,
2013-04-05 06:53:00,33.6,20.8,29.90,SE,135,0.4,0.7,59,0.00,,,0.00,WUHU216HW,2013-04-05 10:53:00,
2013-04-05 06:58:00,33.6,21.2,29.90,SE,135,0.0,0.4,60,0.00,,,0.00,WUHU216HW,2013-04-05 10:58:00,
2013-04-05 07:03:00,33.5,21.1,29.90,SE,135,0.4,0.7,60,0.00,,,0.00,WUHU216HW,2013-04-05 11:03:00,
2013-04-05 07:08:00,33.3,21.0,29.90,SE,135,0.0,0.7,60,0.00,,,0.00,WUHU216HW,2013-04-05 11:08:00,
2013-04-05 07:13:00,33.3,21.0,29.90,SE,135,1.1,1.1,60,0.00,,,0.00,WUHU216HW,2013-04-05 11:13:00,
2013-04-05 07:18:00,33.1,20.8,29.90,SE,135,1.1,1.1,60,0.00,,,0.00,WUHU216HW,2013-04-05 11:18:00,
2013-04-05 07:23:00,33.1,20.8,29.90,SE,135,0.4,1.3,60,0.00,,,0.00,WUHU216HW,2013-04-05 11:23:00,
2013-04-05 07:29:00,32.9,20.6,29.90,SE,135,0.0,1.3,60,0.00,,,0.00,WUHU216HW,2013-04-05 11:29:00,
2013-04-05 07:34:00,32.9,20.6,29.91,SE,135,0.0,0.4,60,0.00,,,0.00,WUHU216HW,2013-04-05 11:34:00,
2013-04-05 07:39:00,33.1,20.8,29.91,SW,225,0.0,0.4,60,0.00,,,0.00,WUHU216HW,2013-04-05 11:39:00,
2013-04-05 07:44:00,33.3,21.0,29.90,West,270,0.2,0.7,60,0.00,,,0.00,WUHU216HW,2013-04-05 11:44:00,
2013-04-05 07:49:00,33.5,21.5,29.90,West,270,0.0,0.7,61,0.00,,,0.00,WUHU216HW,2013-04-05 11:49:00,
2013-04-05 07:55:00,33.6,21.6,29.90,West,270,0.7,0.7,61,0.00,,,0.00,WUHU216HW,2013-04-05 11:55:00,
2013-04-05 08:00:00,33.8,21.4,29.89,West,270,1.1,1.8,60,0.00,,,0.00,WUHU216HW,2013-04-05 12:00:00,
2013-04-05 08:05:00,34.0,21.6,29.89,WSW,248,1.1,2.0,60,0.00,,,0.00,WUHU216HW,2013-04-05 12:05:00,
2013-04-05 08:10:00,34.4,22.0,29.89,West,270,0.7,2.5,60,0.00,,,0.00,WUHU216HW,2013-04-05 12:10:00,
2013-04-05 08:15:00,34.4,22.0,29.89,West,270,2.9,2.9,60,0.00,,,0.00,WUHU216HW,2013-04-05 12:15:00,
2013-04-05 08:20:00,34.5,22.1,29.89,WNW,293,1.8,2.9,60,0.00,,,0.00,WUHU216HW,2013-04-05 12:20:00,
2013-04-05 08:25:00,34.7,22.3,29.88,WSW,248,1.8,2.9,60,0.00,,,0.00,WUHU216HW,2013-04-05 12:25:00,
2013-04-05 08:30:00,35.1,22.7,29.88,WNW,293,2.7,3.1,60,0.00,,,0.00,WUHU216HW,2013-04-05 12:30:00,
2013-04-05 08:35:00,35.3,22.8,29.88,West,270,3.6,4.0,60,0.00,,,0.00,WUHU216HW,2013-04-05 12:35:00,
2013-04-05 08:40:00,35.4,22.9,29.89,WNW,293,2.5,4.0,60,0.00,,,0.00,WUHU216HW,2013-04-05 12:40:00,
2013-04-05 08:45:00,35.6,23.5,29.88,West,270,4.0,4.0,61,0.00,,,0.00,WUHU216HW,2013-04-05 12:45:00,
2013-04-05 08:51:00,35.8,23.3,29.88,SW,225,2.5,5.1,60,0.00,,,0.00,WUHU216HW,2013-04-05 12:51:00,
2013-04-05 08:56:00,36.2,23.7,29.88,WSW,248,2.2,5.4,60,0.00,,,0.00,WUHU216HW,2013-04-05 12:56:00,
2013-04-05 09:01:00,36.5,24.0,29.88,WNW,293,1.8,5.4,60,0.00,,,0.00,WUHU216HW,2013-04-05 13:01:00,
2013-04-05 09:06:00,36.9,23.9,29.87,West,270,1.1,2.9,59,0.00,,,0.00,WUHU216HW,2013-04-05 13:06:00,
2013-04-05 09:11:00,37.2,24.2,29.87,West,270,1.8,3.1,59,0.00,,,0.00,WUHU216HW,2013-04-05 13:11:00,
2013-04-05 09:16:00,37.6,24.2,29.87,WSW,248,2.9,4.0,58,0.00,,,0.00,WUHU216HW,2013-04-05 13:16:00,
2013-04-05 09:21:00,37.8,24.4,29.86,SW,225,2.9,4.0,58,0.00,,,0.00,WUHU216HW,2013-04-05 13:21:00,
2013-04-05 09:26:00,38.1,24.2,29.86,West,270,0.4,4.0,57,0.00,,,0.00,WUHU216HW,2013-04-05 13:26:00,
2013-04-05 09:32:00,38.5,24.2,29.86,WNW,293,2.5,4.7,56,0.00,,,0.00,WUHU216HW,2013-04-05 13:32:00,
2013-04-05 09:37:00,38.9,24.6,29.86,WNW,293,1.3,4.7,56,0.00,,,0.00,WUHU216HW,2013-04-05 13:37:00,
2013-04-05 09:42:00,39.2,24.8,29.86,West,270,1.6,3.4,56,0.00,,,0.00,WUHU216HW,2013-04-05 13:42:00,
2013-04-05 09:47:00,39.6,24.8,29.86,NNW,338,2.2,3.4,55,0.00,,,0.00,WUHU216HW,2013-04-05 13:47:00,
2013-04-05 09:52:00,39.8,25.0,29.86,WNW,293,2.7,4.0,55,0.00,,,0.00,WUHU216HW,2013-04-05 13:52:00,
2013-04-05 09:57:00,39.8,24.5,29.86,WNW,293,3.4,4.0,54,0.00,,,0.00,WUHU216HW,2013-04-05 13:57:00,
2013-04-05 10:02:00,39.8,24.5,29.86,NW,315,1.8,3.8,54,0.00,,,0.00,WUHU216HW,2013-04-05 14:02:00,
2013-04-05 10:07:00,40.1,24.8,29.86,WNW,293,3.4,5.1,54,0.00,,,0.00,WUHU216HW,2013-04-05 14:07:00,
2013-04-05 10:12:00,40.1,24.8,29.86,West,270,1.1,5.1,54,0.00,,,0.00,WUHU216HW,2013-04-05 14:12:00,
2013-04-05 10:17:00,40.7,24.9,29.86,NNW,338,1.8,4.7,53,0.00,,,0.00,WUHU216HW,2013-04-05 14:17:00,
2013-04-05 10:22:00,41.0,25.2,29.86,WNW,293,0.7,4.7,53,0.00,,,0.00,WUHU216HW,2013-04-05 14:22:00,
2013-04-05 10:27:00,41.4,25.5,29.86,WNW,293,2.0,4.3,53,0.00,,,0.00,WUHU216HW,2013-04-05 14:27:00,
2013-04-05 10:33:00,41.7,25.3,29.85,West,270,5.4,5.4,52,0.00,,,0.00,WUHU216HW,2013-04-05 14:33:00,
2013-04-05 10:38:00,42.3,25.4,29.84,NW,315,2.0,5.4,51,0.00,,,0.00,WUHU216HW,2013-04-05 14:38:00,
2013-04-05 10:43:00,42.8,25.9,29.84,WNW,293,3.4,5.1,51,0.00,,,0.00,WUHU216HW,2013-04-05 14:43:00,
2013-04-05 10:48:00,43.4,24.9,29.84,West,270,2.7,6.3,48,0.00,,,0.00,WUHU216HW,2013-04-05 14:48:00,
2013-04-05 10:53:00,43.9,24.9,29.84,WSW,248,2.5,6.3,47,0.00,,,0.00,WUHU216HW,2013-04-05 14:53:00,
2013-04-05 10:58:00,44.1,25.1,29.84,WSW,248,2.5,4.7,47,0.00,,,0.00,WUHU216HW,2013-04-05 14:58:00,
2013-04-05 11:03:00,44.4,24.8,29.84,NW,315,2.5,4.3,46,0.00,,,0.00,WUHU216HW,2013-04-05 15:03:00,
2013-04-05 11:08:00,44.6,24.4,29.84,WSW,248,2.5,4.0,45,0.00,,,0.00,WUHU216HW,2013-04-05 15:08:00,
2013-04-05 11:13:00,45.0,24.2,29.84,WSW,248,2.9,4.9,44,0.00,,,0.00,WUHU216HW,2013-04-05 15:13:00,
2013-04-05 11:18:00,45.2,24.4,29.84,West,270,4.0,4.9,44,0.00,,,0.00,WUHU216HW,2013-04-05 15:18:00,
2013-04-05 11:23:00,45.7,24.3,29.84,NNW,338,1.8,4.7,43,0.00,,,0.00,WUHU216HW,2013-04-05 15:23:00,
2013-04-05 11:29:00,45.9,24.5,29.83,WNW,293,2.2,4.0,43,0.00,,,0.00,WUHU216HW,2013-04-05 15:29:00,
2013-04-05 11:34:00,46.1,24.1,29.83,NNW,338,2.0,4.0,42,0.00,,,0.00,WUHU216HW,2013-04-05 15:34:00,
2013-04-05 11:39:00,46.2,23.6,29.83,NNW,338,4.3,6.0,41,0.00,,,0.00,WUHU216HW,2013-04-05 15:39:00,
2013-04-05 11:44:00,46.6,24.0,29.83,NW,315,4.3,6.0,41,0.00,,,0.00,WUHU216HW,2013-04-05 15:44:00,
2013-04-05 11:49:00,47.0,23.7,29.83,North,0,0.9,4.7,40,0.00,,,0.00,WUHU216HW,2013-04-05 15:49:00,
2013-04-05 11:54:00,47.1,23.8,29.82,WNW,293,2.0,4.0,40,0.00,,,0.00,WUHU216HW,2013-04-05 15:54:00,
2013-04-05 12:00:00,47.3,24.0,29.82,WNW,293,2.5,4.7,40,0.00,,,0.00,WUHU216HW,2013-04-05 16:00:00,
2013-04-05 12:05:00,47.9,24.5,29.81,NW,315,4.9,4.9,40,0.00,,,0.00,WUHU216HW,2013-04-05 16:05:00,
2013-04-05 12:10:00,48.2,24.2,29.81,NW,315,0.9,4.9,39,0.00,,,0.00,WUHU216HW,2013-04-05 16:10:00,
2013-04-05 12:15:00,48.4,24.4,29.81,NNW,338,1.6,4.9,39,0.00,,,0.00,WUHU216HW,2013-04-05 16:15:00,
2013-04-05 12:20:00,48.4,24.4,29.80,WSW,248,0.4,4.0,39,0.00,,,0.00,WUHU216HW,2013-04-05 16:20:00,
2013-04-05 12:25:00,48.8,24.1,29.80,WNW,293,3.6,3.8,38,0.00,,,0.00,WUHU216HW,2013-04-05 16:25:00,
2013-04-05 12:30:00,49.1,24.4,29.79,NNE,23,3.1,3.8,38,0.00,,,0.00,WUHU216HW,2013-04-05 16:30:00,
2013-04-05 12:35:00,49.5,24.7,29.79,WNW,293,3.4,4.7,38,0.00,,,0.00,WUHU216HW,2013-04-05 16:35:00,
2013-04-05 12:40:00,49.7,24.9,29.79,NNW,338,2.0,5.4,38,0.00,,,0.00,WUHU216HW,2013-04-05 16:40:00,
2013-04-05 12:45:00,50.0,24.5,29.79,NW,315,2.5,5.4,37,0.00,,,0.00,WUHU216HW,2013-04-05 16:45:00,
2013-04-05 12:50:00,50.2,24.7,29.78,West,270,3.4,4.9,37,0.00,,,0.00,WUHU216HW,2013-04-05 16:50:00,
2013-04-05 12:55:00,50.7,24.5,29.78,WNW,293,4.0,5.1,36,0.00,,,0.00,WUHU216HW,2013-04-05 16:55:00,
2013-04-05 13:00:00,50.9,24.7,29.77,WSW,248,2.2,5.4,36,0.00,,,0.00,WUHU216HW,2013-04-05 17:00:00,
2013-04-05 13:05:00,51.3,24.3,29.77,NNW,338,2.5,5.4,35,0.00,,,0.00,WUHU216HW,2013-04-05 17:05:00,
2013-04-05 13:11:00,51.5,24.5,29.77,WNW,293,2.9,4.9,35,0.00,,,0.00,WUHU216HW,2013-04-05 17:11:00,
2013-04-05 13:16:00,51.6,25.3,29.76,WNW,293,3.4,7.4,36,0.00,,,0.00,WUHU216HW,2013-04-05 17:16:00,
2013-04-05 13:21:00,52.2,24.4,29.76,NW,315,4.0,7.6,34,0.00,,,0.00,WUHU216HW,2013-04-05 17:21:00,
2013-04-05 13:26:00,52.4,23.9,29.76,ESE,113,6.3,7.6,33,0.00,,,0.00,WUHU216HW,2013-04-05 17:26:00,
2013-04-05 13:31:00,52.9,24.3,29.76,NW,315,2.9,6.7,33,0.00,,,0.00,WUHU216HW,2013-04-05 17:31:00,
2013-04-05 13:36:00,53.3,24.7,29.75,West,270,4.5,5.4,33,0.00,,,0.00,WUHU216HW,2013-04-05 17:36:00,
2013-04-05 13:42:00,53.6,24.9,29.75,NNW,338,1.1,6.3,33,0.00,,,0.00,WUHU216HW,2013-04-05 17:42:00,
2013-04-05 13:47:00,53.8,24.4,29.75,WNW,293,5.8,6.9,32,0.00,,,0.00,WUHU216HW,2013-04-05 17:47:00,
2013-04-05 13:52:00,54.0,24.6,29.74,WNW,293,6.5,10.1,32,0.00,,,0.00,WUHU216HW,2013-04-05 17:52:00,
2013-04-05 13:57:00,54.2,24.7,29.75,NW,315,6.3,10.5,32,0.00,,,0.00,WUHU216HW,2013-04-05 17:57:00,
2013-04-05 14:02:00,54.2,24.7,29.75,WNW,293,4.9,10.5,32,0.00,,,0.00,WUHU216HW,2013-04-05 18:02:00,
2013-04-05 14:07:00,54.2,25.5,29.75,NNW,338,3.4,8.5,33,0.00,,,0.00,WUHU216HW,2013-04-05 18:07:00,
2013-04-05 14:12:00,54.3,25.6,29.75,West,270,5.1,7.4,33,0.00,,,0.00,WUHU216HW,2013-04-05 18:12:00,
2013-04-05 14:17:00,54.7,25.9,29.75,West,270,6.5,6.5,33,0.00,,,0.00,WUHU216HW,2013-04-05 18:17:00,
2013-04-05 14:23:00,54.7,25.9,29.75,NW,315,11.6,11.6,33,0.00,,,0.00,WUHU216HW,2013-04-05 18:23:00,
2013-04-05 14:28:00,54.5,25.0,29.75,West,270,5.4,12.3,32,0.00,,,0.00,WUHU216HW,2013-04-05 18:28:00,
2013-04-05 14:33:00,54.5,25.7,29.75,NW,315,5.4,12.3,33,0.00,,,0.00,WUHU216HW,2013-04-05 18:33:00,
2013-04-05 14:38:00,54.5,25.7,29.75,SSE,158,3.6,12.8,33,0.00,,,0.00,WUHU216HW,2013-04-05 18:38:00,
2013-04-05 14:43:00,54.5,25.0,29.75,WSW,248,6.5,12.8,32,0.00,,,0.00,WUHU216HW,2013-04-05 18:43:00,
2013-04-05 14:48:00,54.3,25.6,29.74,NNW,338,3.6,9.2,33,0.00,,,0.00,WUHU216HW,2013-04-05 18:48:00,
2013-04-05 14:53:00,54.3,25.6,29.75,WSW,248,3.8,7.4,33,0.00,,,0.00,WUHU216HW,2013-04-05 18:53:00,
2013-04-05 14:59:00,54.5,25.7,29.75,West,270,5.6,10.1,33,0.00,,,0.00,WUHU216HW,2013-04-05 18:59:00,
2013-04-05 15:04:00,54.5,25.7,29.75,West,270,4.9,10.1,33,0.00,,,0.00,WUHU216HW,2013-04-05 19:04:00,
2013-04-05 15:09:00,54.7,25.9,29.75,West,270,3.4,8.5,33,0.00,,,0.00,WUHU216HW,2013-04-05 19:09:00,
2013-04-05 15:14:00,54.7,25.2,29.75,West,270,5.4,7.6,32,0.00,,,0.00,WUHU216HW,2013-04-05 19:14:00,
2013-04-05 15:19:00,55.1,25.5,29.75,West,270,6.5,8.1,32,0.00,,,0.00,WUHU216HW,2013-04-05 19:19:00,
2013-04-05 15:24:00,55.2,25.6,29.74,West,270,8.1,8.1,32,0.00,,,0.00,WUHU216HW,2013-04-05 19:24:00,
2013-04-05 15:29:00,55.1,25.5,29.75,WNW,293,4.0,8.1,32,0.00,,,0.00,WUHU216HW,2013-04-05 19:29:00,
2013-04-05 15:34:00,55.2,25.6,29.75,NNW,338,6.3,8.1,32,0.00,,,0.00,WUHU216HW,2013-04-05 19:34:00,
2013-04-05 15:39:00,55.2,25.6,29.76,WSW,248,9.6,9.6,32,0.00,,,0.00,WUHU216HW,2013-04-05 19:39:00,
2013-04-05 15:45:00,54.7,24.4,29.76,West,270,8.9,9.6,31,0.00,,,0.00,WUHU216HW,2013-04-05 19:45:00,
2013-04-05 15:50:00,54.5,24.2,29.76,WNW,293,2.7,9.6,31,0.00,,,0.00,WUHU216HW,2013-04-05 19:50:00,
2013-04-05 15:55:00,54.5,25.0,29.75,WNW,293,6.7,9.2,32,0.00,,,0.00,WUHU216HW,2013-04-05 19:55:00,
2013-04-05 16:00:00,54.3,24.1,29.75,NNW,338,5.1,10.7,31,0.00,,,0.00,WUHU216HW,2013-04-05 20:00:00,
2013-04-05 16:05:00,54.3,24.8,29.76,West,270,2.5,10.7,32,0.00,,,0.00,WUHU216HW,2013-04-05 20:05:00,
2013-04-05 16:10:00,54.5,25.0,29.76,NNW,338,4.5,7.6,32,0.00,,,0.00,WUHU216HW,2013-04-05 20:10:00,
2013-04-05 16:15:00,54.5,25.0,29.76,WSW,248,2.7,5.8,32,0.00,,,0.00,WUHU216HW,2013-04-05 20:15:00,
2013-04-05 16:20:00,54.7,25.2,29.76,WNW,293,8.9,9.2,32,0.00,,,0.00,WUHU216HW,2013-04-05 20:20:00,
2013-04-05 16:26:00,54.3,24.1,29.76,WNW,293,4.0,9.2,31,0.00,,,0.00,WUHU216HW,2013-04-05 20:26:00,
2013-04-05 16:31:00,54.5,25.0,29.76,NW,315,4.9,8.1,32,0.00,,,0.00,WUHU216HW,2013-04-05 20:31:00,
2013-04-05 16:36:00,54.7,24.4,29.76,NNW,338,2.5,6.9,31,0.00,,,0.00,WUHU216HW,2013-04-05 20:36:00,
2013-04-05 16:41:00,54.9,24.6,29.76,NNW,338,2.7,11.2,31,0.00,,,0.00,WUHU216HW,2013-04-05 20:41:00,
2013-04-05 16:46:00,54.9,24.6,29.76,West,270,8.9,11.2,31,0.00,,,0.00,WUHU216HW,2013-04-05 20:46:00,
2013-04-05 16:51:00,55.1,24.0,29.76,NNW,338,4.9,9.6,30,0.00,,,0.00,WUHU216HW,2013-04-05 20:51:00,
2013-04-05 16:56:00,55.2,24.1,29.76,NNW,338,3.6,8.3,30,0.00,,,0.00,WUHU216HW,2013-04-05 20:56:00,
2013-04-05 17:01:00,55.1,23.2,29.77,WNW,293,7.4,7.4,29,0.00,,,0.00,WUHU216HW,2013-04-05 21:01:00,
2013-04-05 17:06:00,55.1,23.2,29.77,NNW,338,4.9,8.5,29,0.00,,,0.00,WUHU216HW,2013-04-05 21:06:00,
2013-04-05 17:12:00,55.2,24.1,29.77,NW,315,3.6,8.5,30,0.00,,,0.00,WUHU216HW,2013-04-05 21:12:00,
2013-04-05 17:17:00,55.4,24.2,29.78,West,270,4.9,5.6,30,0.00,,,0.00,WUHU216HW,2013-04-05 21:17:00,
2013-04-05 17:22:00,55.2,24.1,29.78,WNW,293,6.5,6.5,30,0.00,,,0.00,WUHU216HW,2013-04-05 21:22:00,
2013-04-05 17:27:00,55.1,23.2,29.78,NW,315,9.8,9.8,29,0.00,,,0.00,WUHU216HW,2013-04-05 21:27:00,
2013-04-05 17:32:00,54.7,22.8,29.78,NNW,338,5.1,9.8,29,0.00,,,0.00,WUHU216HW,2013-04-05 21:32:00,
2013-04-05 17:37:00,54.7,23.6,29.78,NW,315,2.5,9.8,30,0.00,,,0.00,WUHU216HW,2013-04-05 21:37:00,
2013-04-05 17:42:00,54.9,23.8,29.78,West,270,4.0,8.7,30,0.00,,,0.00,WUHU216HW,2013-04-05 21:42:00,
2013-04-05 17:47:00,54.9,23.8,29.78,West,270,4.7,6.5,30,0.00,,,0.00,WUHU216HW,2013-04-05 21:47:00,
2013-04-05 17:52:00,54.9,23.8,29.79,NW,315,4.9,6.0,30,0.00,,,0.00,WUHU216HW,2013-04-05 21:52:00,
2013-04-05 17:57:00,54.7,22.8,29.80,West,270,8.3,8.9,29,0.00,,,0.00,WUHU216HW,2013-04-05 21:57:00,
2013-04-05 18:02:00,54.2,21.6,29.80,NW,315,4.0,8.9,28,0.00,,,0.00,WUHU216HW,2013-04-05 22:02:00,
2013-04-05 18:07:00,54.2,22.4,29.80,West,270,1.8,8.5,29,0.00,,,0.00,WUHU216HW,2013-04-05 22:07:00,
2013-04-05 18:12:00,54.0,23.0,29.81,NNW,338,2.0,7.2,30,0.00,,,0.00,WUHU216HW,2013-04-05 22:12:00,
2013-04-05 18:17:00,54.0,23.0,29.81,WSW,248,2.9,4.0,30,0.00,,,0.00,WUHU216HW,2013-04-05 22:17:00,
2013-04-05 18:22:00,54.2,23.2,29.81,WNW,293,2.9,6.5,30,0.00,,,0.00,WUHU216HW,2013-04-05 22:22:00,
2013-04-05 18:27:00,53.8,23.6,29.81,WSW,248,4.5,6.5,31,0.00,,,0.00,WUHU216HW,2013-04-05 22:27:00,
2013-04-05 18:32:00,53.4,22.5,29.82,NNW,338,4.7,5.4,30,0.00,,,0.00,WUHU216HW,2013-04-05 22:32:00,
2013-04-05 18:38:00,53.1,23.0,29.82,West,270,4.0,6.3,31,0.00,,,0.00,WUHU216HW,2013-04-05 22:38:00,
2013-04-05 18:43:00,52.9,22.8,29.82,NW,315,4.9,6.3,31,0.00,,,0.00,WUHU216HW,2013-04-05 22:43:00,
2013-04-05 18:48:00,52.7,22.7,29.82,North,0,2.2,5.4,31,0.00,,,0.00,WUHU216HW,2013-04-05 22:48:00,
2013-04-05 18:53:00,52.2,22.2,29.83,WNW,293,4.7,5.4,31,0.00,,,0.00,WUHU216HW,2013-04-05 22:53:00,
2013-04-05 18:58:00,51.6,22.5,29.83,WNW,293,1.8,4.7,32,0.00,,,0.00,WUHU216HW,2013-04-05 22:58:00,
2013-04-05 19:03:00,51.5,22.4,29.83,NW,315,1.8,4.9,32,0.00,,,0.00,WUHU216HW,2013-04-05 23:03:00,
2013-04-05 19:08:00,50.9,21.8,29.83,NNW,338,3.6,5.4,32,0.00,,,0.00,WUHU216HW,2013-04-05 23:08:00,
2013-04-05 19:13:00,50.4,21.4,29.84,NW,315,2.9,5.4,32,0.00,,,0.00,WUHU216HW,2013-04-05 23:13:00,
2013-04-05 19:18:00,49.8,21.6,29.84,WNW,293,4.0,6.9,33,0.00,,,0.00,WUHU216HW,2013-04-05 23:18:00,
2013-04-05 19:23:00,49.3,21.2,29.84,NW,315,2.2,6.9,33,0.00,,,0.00,WUHU216HW,2013-04-05 23:23:00,
2013-04-05 19:28:00,48.8,21.4,29.84,NNW,338,4.9,4.9,34,0.00,,,0.00,WUHU216HW,2013-04-05 23:28:00,
2013-04-05 19:33:00,48.4,21.1,29.85,WNW,293,2.2,4.9,34,0.00,,,0.00,WUHU216HW,2013-04-05 23:33:00,
2013-04-05 19:39:00,48.0,20.7,29.85,NW,315,3.8,5.6,34,0.00,,,0.00,WUHU216HW,2013-04-05 23:39:00,
2013-04-05 19:44:00,47.5,20.3,29.86,North,0,6.0,6.0,34,0.00,,,0.00,WUHU216HW,2013-04-05 23:44:00,
2013-04-05 19:49:00,47.1,20.6,29.86,NW,315,5.1,9.2,35,0.00,,,0.00,WUHU216HW,2013-04-05 23:49:00,
2013-04-05 19:54:00,46.6,20.8,29.86,West,270,6.3,9.2,36,0.00,,,0.00,WUHU216HW,2013-04-05 23:54:00,
2013-04-05 19:59:00,46.2,20.5,29.87,NNW,338,1.8,8.5,36,0.00,,,0.00,WUHU216HW,2013-04-05 23:59:00,
2013-04-05 20:04:00,45.9,20.9,29.87,West,270,5.4,9.2,37,0.00,,,0.00,WUHU216HW,2013-04-06 00:04:00,
2013-04-05 20:09:00,45.7,20.7,29.87,WNW,293,1.8,9.2,37,0.00,,,0.00,WUHU216HW,2013-04-06 00:09:00,
2013-04-05 20:14:00,45.5,20.5,29.88,WNW,293,3.6,5.4,37,0.00,,,0.00,WUHU216HW,2013-04-06 00:14:00,
2013-04-05 20:19:00,45.3,21.0,29.88,WNW,293,5.4,10.3,38,0.00,,,0.00,WUHU216HW,2013-04-06 00:19:00,
2013-04-05 20:25:00,45.0,20.1,29.89,West,270,3.8,10.3,37,0.00,,,0.00,WUHU216HW,2013-04-06 00:25:00,
2013-04-05 20:30:00,44.6,19.7,29.89,ESE,113,4.5,8.7,37,0.00,,,0.00,WUHU216HW,2013-04-06 00:30:00,
2013-04-05 20:35:00,44.4,20.2,29.89,NW,315,5.6,7.6,38,0.00,,,0.00,WUHU216HW,2013-04-06 00:35:00,
2013-04-05 20:40:00,44.1,19.9,29.90,NW,315,3.4,8.5,38,0.00,,,0.00,WUHU216HW,2013-04-06 00:40:00,
2013-04-05 20:45:00,43.7,20.1,29.90,West,270,4.5,8.5,39,0.00,,,0.00,WUHU216HW,2013-04-06 00:45:00,
2013-04-05 20:50:00,43.5,20.0,29.91,WNW,293,8.5,8.5,39,0.00,,,0.00,WUHU216HW,2013-04-06 00:50:00,
2013-04-05 20:55:00,43.2,19.7,29.92,NW,315,5.1,11.0,39,0.00,,,0.00,WUHU216HW,2013-04-06 00:55:00,
2013-04-05 21:00:00,43.0,20.1,29.92,NW,315,3.4,11.0,40,0.00,,,0.00,WUHU216HW,2013-04-06 01:00:00,
2013-04-05 21:05:00,42.6,19.8,29.93,ESE,113,3.1,7.6,40,0.00,,,0.00,WUHU216HW,2013-04-06 01:05:00,
2013-04-05 21:10:00,42.3,20.1,29.93,WNW,293,6.0,7.6,41,0.00,,,0.00,WUHU216HW,2013-04-06 01:10:00,
2013-04-05 21:15:00,41.9,20.3,29.93,NNW,338,3.4,6.0,42,0.00,,,0.00,WUHU216HW,2013-04-06 01:15:00,
2013-04-05 21:20:00,41.7,20.1,29.94,NNW,338,2.9,6.0,42,0.00,,,0.00,WUHU216HW,2013-04-06 01:20:00,
2013-04-05 21:25:00,41.4,20.4,29.94,NW,315,3.8,10.1,43,0.00,,,0.00,WUHU216HW,2013-04-06 01:25:00,
2013-04-05 21:31:00,41.0,20.0,29.94,NW,315,3.6,10.1,43,0.00,,,0.00,WUHU216HW,2013-04-06 01:31:00,
2013-04-05 21:36:00,40.7,20.3,29.94,NNW,338,3.6,7.8,44,0.00,,,0.00,WUHU216HW,2013-04-06 01:36:00,
2013-04-05 21:41:00,40.1,19.8,29.95,NW,315,4.0,9.4,44,0.00,,,0.00,WUHU216HW,2013-04-06 01:41:00,
2013-04-05 21:46:00,39.9,20.1,29.95,NW,315,3.6,9.4,45,0.00,,,0.00,WUHU216HW,2013-04-06 01:46:00,
2013-04-05 21:51:00,39.6,19.9,29.96,WNW,293,5.4,9.4,45,0.00,,,0.00,WUHU216HW,2013-04-06 01:51:00,
2013-04-05 21:56:00,39.4,19.7,29.96,West,270,5.4,9.4,45,0.00,,,0.00,WUHU216HW,2013-04-06 01:56:00,
2013-04-05 22:01:00,39.0,19.3,29.97,West,270,6.7,8.7,45,0.00,,,0.00,WUHU216HW,2013-04-06 02:01:00,
2013-04-05 22:06:00,38.7,19.0,29.97,WNW,293,7.4,8.7,45,0.00,,,0.00,WUHU216HW,2013-04-06 02:06:00,
2013-04-05 22:11:00,38.3,18.7,29.97,NW,315,8.9,12.8,45,0.00,,,0.00,WUHU216HW,2013-04-06 02:11:00,
2013-04-05 22:16:00,38.0,18.4,29.97,WNW,293,5.4,12.8,45,0.00,,,0.00,WUHU216HW,2013-04-06 02:16:00,
2013-04-05 22:21:00,37.8,18.2,29.97,WNW,293,3.1,11.4,45,0.00,,,0.00,WUHU216HW,2013-04-06 02:21:00,
2013-04-05 22:26:00,37.6,18.0,29.97,WNW,293,6.3,10.3,45,0.00,,,0.00,WUHU216HW,2013-04-06 02:26:00,
2013-04-05 22:32:00,37.2,17.7,29.97,NW,315,3.8,10.3,45,0.00,,,0.00,WUHU216HW,2013-04-06 02:32:00,
2013-04-05 22:37:00,37.2,17.7,29.97,WNW,293,4.0,11.6,45,0.00,,,0.00,WUHU216HW,2013-04-06 02:37:00,
2013-04-05 22:42:00,37.1,17.6,29.97,NNW,338,7.6,11.6,45,0.00,,,0.00,WUHU216HW,2013-04-06 02:42:00,
2013-04-05 22:47:00,36.9,17.4,29.97,WNW,293,6.9,9.6,45,0.00,,,0.00,WUHU216HW,2013-04-06 02:47:00,
2013-04-05 22:52:00,36.7,17.2,29.97,WNW,293,4.5,10.5,45,0.00,,,0.00,WUHU216HW,2013-04-06 02:52:00,
2013-04-05 22:57:00,36.5,17.0,29.97,West,270,2.9,10.5,45,0.00,,,0.00,WUHU216HW,2013-04-06 02:57:00,
2013-04-05 23:02:00,36.3,16.8,29.97,NW,315,5.4,8.3,45,0.00,,,0.00,WUHU216HW,2013-04-06 03:02:00,
2013-04-05 23:07:00,36.2,16.8,29.97,WNW,293,2.5,8.9,45,0.00,,,0.00,WUHU216HW,2013-04-06 03:07:00,
2013-04-05 23:13:00,36.2,17.3,29.97,NNW,338,6.5,8.9,46,0.00,,,0.00,WUHU216HW,2013-04-06 03:13:00,
2013-04-05 23:18:00,36.0,17.1,29.97,NW,315,5.1,6.7,46,0.00,,,0.00,WUHU216HW,2013-04-06 03:18:00,
2013-04-05 23:23:00,35.8,16.9,29.97,WSW,248,7.8,7.8,46,0.00,,,0.00,WUHU216HW,2013-04-06 03:23:00,
2013-04-05 23:28:00,35.8,16.9,29.97,NW,315,5.6,8.9,46,0.00,,,0.00,WUHU216HW,2013-04-06 03:28:00,
2013-04-05 23:33:00,35.6,16.7,29.97,West,270,3.4,8.9,46,0.00,,,0.00,WUHU216HW,2013-04-06 03:33:00,
2013-04-05 23:38:00,35.4,17.1,29.98,WNW,293,5.4,8.7,47,0.00,,,0.00,WUHU216HW,2013-04-06 03:38:00,
2013-04-05 23:43:00,35.4,17.1,29.98,NNW,338,5.6,7.8,47,0.00,,,0.00,WUHU216HW,2013-04-06 03:43:00,
2013-04-05 23:48:00,35.3,17.0,29.98,WNW,293,5.6,9.2,47,0.00,,,0.00,WUHU216HW,2013-04-06 03:48:00,
2013-04-05 23:53:00,35.1,17.3,29.99,West,270,8.5,9.2,48,0.00,,,0.00,WUHU216HW,2013-04-06 03:53:00,
2013-04-05 23:59:00,35.1,17.3,29.99,NNW,338,3.4,9.6,48,0.00,,,0.00,WUHU216HW,2013-04-06 03:59:00,